Location: Ville-Marie
(47.3330°N, 79.4330°W)
Time: 02:35:00
(UTC-04:00)

ISS - Pass Details

Date: 25 April 2021
Orbit: 417 x 422 km, 51.6° (Epoch: 14 May)

Event Time Altitude Azimuth Distance (km) Brightness Sun altitude
Exits shadow 05:10:25 - 184° (S) 2,079 -0.6 -10.0°
Reaches altitude 10° 05:12:43 10° 158° (SSE) 1,497 -1.0 -9.7°
Maximum altitude 05:14:05 12° 133° (SE) 1,380 -0.9 -9.5°
Drops below altitude 10° 05:15:28 10° 109° (ESE) 1,503 -0.4 -9.3°
Sets 05:18:37 0° 77° (ENE) 2,374 1.7 -8.8°
